TimeEST,TemperatureF,Dew PointF,Humidity,Sea Level PressureIn,VisibilityMPH,Wind Direction,Wind SpeedMPH,Gust SpeedMPH,PrecipitationIn,Events,Conditions,WindDirDegrees,DateUTC
12:53 AM,15.1,1.9,56,30.33,10.0,North,5.8,-,N/A,,Clear,360,2014-03-04 05:53:00
1:53 AM,15.1,1.9,56,30.33,10.0,North,6.9,-,N/A,,Clear,350,2014-03-04 06:53:00
2:53 AM,14.0,1.9,59,30.33,10.0,North,6.9,-,N/A,,Clear,350,2014-03-04 07:53:00
3:53 AM,14.0,1.9,59,30.34,10.0,North,5.8,-,N/A,,Clear,360,2014-03-04 08:53:00
4:53 AM,14.0,1.9,59,30.36,10.0,North,3.5,-,N/A,,Clear,10,2014-03-04 09:53:00
5:53 AM,12.9,1.0,59,30.38,10.0,North,4.6,-,N/A,,Clear,10,2014-03-04 10:53:00
6:53 AM,9.0,-0.9,64,30.38,10.0,Calm,Calm,-,N/A,,Clear,0,2014-03-04 11:53:00
7:53 AM,18.0,3.9,54,30.40,10.0,North,10.4,-,N/A,,Clear,350,2014-03-04 12:53:00
8:53 AM,19.0,3.9,52,30.42,10.0,North,8.1,-,N/A,,Clear,360,2014-03-04 13:53:00
9:53 AM,21.0,3.9,48,30.42,10.0,North,5.8,-,N/A,,Clear,350,2014-03-04 14:53:00
10:53 AM,21.9,5.0,48,30.41,10.0,North,5.8,-,N/A,,Clear,360,2014-03-04 15:53:00
11:53 AM,23.0,3.0,42,30.38,10.0,WSW,3.5,-,N/A,,Clear,240,2014-03-04 16:53:00
12:53 PM,25.0,3.9,41,30.34,10.0,Variable,3.5,-,N/A,,Scattered Clouds,0,2014-03-04 17:53:00
1:53 PM,26.1,5.0,41,30.33,10.0,SW,4.6,-,N/A,,Mostly Cloudy,220,2014-03-04 18:53:00
2:53 PM,27.0,7.0,43,30.32,10.0,SSW,6.9,-,N/A,,Overcast,210,2014-03-04 19:53:00
3:53 PM,26.1,5.0,41,30.31,10.0,SSW,8.1,-,N/A,,Overcast,210,2014-03-04 20:53:00
4:53 PM,26.1,5.0,41,30.31,10.0,SW,6.9,-,N/A,,Overcast,220,2014-03-04 21:53:00
5:53 PM,25.0,7.0,46,30.31,10.0,WSW,5.8,-,N/A,,Mostly Cloudy,240,2014-03-04 22:53:00
6:53 PM,24.1,9.0,53,30.32,10.0,WSW,3.5,-,N/A,,Clear,250,2014-03-04 23:53:00
7:53 PM,23.0,9.0,55,30.30,10.0,Calm,Calm,-,N/A,,Clear,0,2014-03-05 00:53:00
8:53 PM,19.9,10.0,65,30.31,10.0,Calm,Calm,-,N/A,,Partly Cloudy,0,2014-03-05 01:53:00
9:53 PM,18.0,8.1,65,30.31,10.0,Calm,Calm,-,N/A,,Partly Cloudy,0,2014-03-05 02:53:00
10:53 PM,21.0,10.9,65,30.30,10.0,Calm,Calm,-,N/A,,Mostly Cloudy,0,2014-03-05 03:53:00
11:53 PM,19.9,10.9,68,30.28,10.0,Calm,Calm,-,N/A,,Clear,0,2014-03-05 04:53:00